Carnival Conquest — 3FPQ9 — position and weather

sailwx.info

Track history (hours):
 
Tides and Currents Weather Stations Pressure Air Temp Water Temp Dewpoint Dewpoint Depression Visibility Wind Speed Wind Dir Waves Ship Positions

Carnival Conquest

Operator: Carnival Cruise Lines

Last reported at 2017-Jul-22 03:00 UTC. Time now 2017-Jul-22 12:44 UTC.
Position N 25°36' W 075°42'.

Type: Ship. MMSI: 357657000.

Wind from 090 at 15 knots

Barometer 1020.0 mb
Air temperature 28.0 ° C
Dewpoint 25.0 ° C
Water temperature 28.0 ° C

Date/timePositionNaut miles runAvg speedWind from/ knotsBaromVisibWave heightAir tempDewpointWater temp
2017-Jul-22 03:00N 25°36' W 075°42'33 8.3 090 / 151020.0 28.025.028.0
2017-Jul-21 23:00N 25°42' W 076°18'3210.8 090 / 91019.010.8 28.022.028.0
2017-Jul-21 20:00N 25°42' W 076°54'130 9.3 070 / 101017.0 26.023.0
2017-Jul-21 06:05N 26°16' W 079°13'110.4
2017-Jul-21 06:00N 26°16' W 079°14'17614057.0
2017-Jul-21 06:00N 29°12' W 079°12'177365.6 090 / 101017.0 26.023.028.0
2017-Jul-21 05:30N 26°15' W 079°20'510.3
2017-Jul-21 05:00N 26°18' W 079°25'4 8.7
2017-Jul-21 04:30N 26°20' W 079°30'510.0
2017-Jul-21 04:00N 26°15' W 079°31'510.6
2017-Jul-21 03:30N 26°10' W 079°31'510.5
2017-Jul-21 03:00N 26°04' W 079°31'510.5
2017-Jul-21 02:30N 25°59' W 079°32'510.7
2017-Jul-21 02:00N 25°54' W 079°32'2316.2
2017-Jul-21 02:00N 25°54' W 079°30'713.7 090 / 151018.0 28.025.028.0
2017-Jul-21 01:30N 25°48' W 079°33'4 7.5
2017-Jul-21 00:59N 25°49' W 079°37'4 7.8
2017-Jul-21 00:30N 25°52' W 079°38'4 8.4
2017-Jul-20 23:59N 25°56' W 079°40'5 8.3
2017-Jul-20 23:20N 26°00' W 079°44'3 9.2
2017-Jul-20 23:00N 26°01' W 079°47'5 9.6
2017-Jul-20 22:30N 26°03' W 079°52'4 8.6
2017-Jul-20 22:00N 26°05' W 079°56'5 9.8
2017-Jul-20 21:30N 26°06' W 080°02'5 9.5
2017-Jul-20 21:00N 26°06' W 080°07'0 0.8
2017-Jul-20 20:26N 26°05' W 080°07'0 0.0
2017-Jul-20 19:59N 26°05' W 080°07'0 0.0
2017-Jul-20 19:29N 26°05' W 080°07'0 0.0
2017-Jul-20 18:58N 26°05' W 080°07'0 0.0
2017-Jul-20 18:28N 26°05' W 080°07'0 0.0
2017-Jul-20 17:58N 26°05' W 080°07'0 0.0
2017-Jul-20 17:28N 26°05' W 080°07'0 0.0
2017-Jul-20 17:00N 26°05' W 080°07'0 0.0
2017-Jul-20 16:30N 26°05' W 080°07'0 0.0
2017-Jul-20 16:00N 26°05' W 080°07'0 0.0
2017-Jul-20 15:27N 26°05' W 080°07'0 0.0
2017-Jul-20 14:57N 26°05' W 080°07'0 0.0
2017-Jul-20 13:59N 26°05' W 080°07'0 0.0
2017-Jul-20 13:29N 26°05' W 080°07'0 0.0
2017-Jul-20 12:59N 26°05' W 080°07'0 0.0
2017-Jul-20 12:26N 26°05' W 080°07'0 0.0
2017-Jul-20 11:55N 26°05' W 080°07'0 0.0
2017-Jul-20 11:28N 26°05' W 080°07'0 0.0
2017-Jul-20 10:58N 26°05' W 080°07'0 0.0
2017-Jul-20 10:28N 26°05' W 080°07'0 0.0
2017-Jul-20 10:00N 26°05' W 080°07'1 1.7
2017-Jul-20 09:30N 26°06' W 080°06'612.0
2017-Jul-20 09:00N 26°06' W 079°60'815.8
2017-Jul-20 08:30N 26°07' W 079°51'816.1
2017-Jul-20 08:00N 26°08' W 079°42'815.6
2017-Jul-20 07:30N 26°09' W 079°33'714.4
2017-Jul-20 07:01N 26°10' W 079°25'917.4
2017-Jul-20 06:31N 26°11' W 079°16'32016.4
2017-Jul-19 11:00N 24°00' W 073°54'10517.6 090 / 201019.010.8 27.024.028.0
2017-Jul-19 05:00N 22°48' W 072°30'29 1.5 050 / 201020.0 26.023.028.0
2017-Jul-18 09:00N 22°24' W 072°12'4924.5 100 / 191015.010.8 26.023.028.0
2017-Jul-18 07:00N 22°54' W 072°54'14317.9 090 / 201015.0 24.021.028.0
2017-Jul-17 23:00N 23°48' W 075°18'96 5.6 120 / 221016.010.8 26.022.028.0
2017-Jul-17 06:00N 25°24' W 075°18'5427.1 090 / 101015.0 26.020.0
2017-Jul-17 04:00N 25°48' W 076°12'65 3.3 090 / 151016.0 28.025.028.0
2017-Jul-16 08:00N 25°42' W 077°24'5413.5 050 / 121015.0 26.023.028.0
2017-Jul-16 04:00N 26°06' W 078°18'5414.5 28.0
2017-Jul-16 00:16N 26°14' W 079°17'414.8
2017-Jul-16 00:01N 26°14' W 079°21'714.6
2017-Jul-15 23:31N 26°12' W 079°29'714.2
2017-Jul-15 23:00N 26°11' W 079°37'714.5
2017-Jul-15 22:30N 26°09' W 079°45'714.7
2017-Jul-15 22:00N 26°08' W 079°53'714.3
2017-Jul-15 21:30N 26°07' W 080°01'510.7
2017-Jul-15 21:01N 26°06' W 080°07'0 0.9
2017-Jul-15 20:29N 26°05' W 080°07'0 0.0
2017-Jul-15 19:59N 26°05' W 080°07'0 0.0
2017-Jul-15 19:29N 26°05' W 080°07'0 0.0
2017-Jul-15 18:58N 26°05' W 080°07'0 0.0
2017-Jul-15 18:28N 26°05' W 080°07'0 0.0
2017-Jul-15 17:58N 26°05' W 080°07'0 0.0
2017-Jul-15 17:28N 26°05' W 080°07'0 0.0
2017-Jul-15 17:00N 26°05' W 080°07'0 0.0
2017-Jul-15 16:30N 26°05' W 080°07'0 0.0
2017-Jul-15 15:57N 26°05' W 080°07'0 0.0
2017-Jul-15 15:27N 26°05' W 080°07'0 0.0
2017-Jul-15 14:57N 26°05' W 080°07'0 0.0
2017-Jul-15 13:56N 26°05' W 080°07'0 0.0
2017-Jul-15 13:29N 26°05' W 080°07'0 0.0
2017-Jul-15 12:59N 26°05' W 080°07'0 0.0
2017-Jul-15 12:28N 26°05' W 080°07'0 0.0
2017-Jul-15 11:58N 26°05' W 080°07'0 0.0
2017-Jul-15 11:25N 26°05' W 080°07'0 0.0
2017-Jul-15 10:58N 26°05' W 080°07'0 0.0
2017-Jul-15 10:28N 26°05' W 080°07'0 0.0
2017-Jul-15 10:00N 26°05' W 080°07'0 0.0
2017-Jul-15 09:30N 26°05' W 080°07'0 0.3
2017-Jul-15 09:00N 26°05' W 080°07'4 8.4
2017-Jul-15 08:30N 26°05' W 080°02'815.2
2017-Jul-15 08:01N 26°00' W 079°56'1020.0
2017-Jul-15 07:30N 25°53' W 079°49'1020.5
2017-Jul-15 07:01N 25°43' W 079°47'918.4
2017-Jul-15 06:30N 25°33' W 079°46'1021.4
2017-Jul-15 06:01N 25°23' W 079°45'35314.7
2017-Jul-14 06:00N 20°54' W 083°54'6220.7 270 / 51017.0 26.023.0
2017-Jul-14 03:00N 20°18' W 083°00'26711.1 090 / 101016.0 29.025.0
2017-Jul-13 03:00N 18°42' W 078°36'27411.4 090 / 101015.0 28.025.029.0
2017-Jul-12 03:00N 20°06' W 074°00'   090 / 151016.0 27.024.0
Track history (hours):
 
Tides and Currents Weather Stations Pressure Air Temp Water Temp Dewpoint Dewpoint Depression Visibility Wind Speed Wind Dir Waves Ship Positions

Carnival Conquest

Operator: Carnival Cruise Lines

Last reported at 2017-Jul-22 03:00 UTC. Time now 2017-Jul-22 12:44 UTC.
Position N 25°36' W 075°42'.

Type: Ship. MMSI: 357657000.

Wind from 090 at 15 knots

Barometer 1020.0 mb
Air temperature 28.0 ° C
Dewpoint 25.0 ° C
Water temperature 28.0 ° C

Date/timePositionNaut miles runAvg speedWind from/ knotsBaromVisibWave heightAir tempDewpointWater temp
2017-Jul-22 03:00N 25°36' W 075°42'33 8.3 090 / 151020.0 28.025.028.0
2017-Jul-21 23:00N 25°42' W 076°18'3210.8 090 / 91019.010.8 28.022.028.0
2017-Jul-21 20:00N 25°42' W 076°54'130 9.3 070 / 101017.0 26.023.0
2017-Jul-21 06:05N 26°16' W 079°13'110.4
2017-Jul-21 06:00N 26°16' W 079°14'17614057.0
2017-Jul-21 06:00N 29°12' W 079°12'177365.6 090 / 101017.0 26.023.028.0
2017-Jul-21 05:30N 26°15' W 079°20'510.3
2017-Jul-21 05:00N 26°18' W 079°25'4 8.7
2017-Jul-21 04:30N 26°20' W 079°30'510.0
2017-Jul-21 04:00N 26°15' W 079°31'510.6
2017-Jul-21 03:30N 26°10' W 079°31'510.5
2017-Jul-21 03:00N 26°04' W 079°31'510.5
2017-Jul-21 02:30N 25°59' W 079°32'510.7
2017-Jul-21 02:00N 25°54' W 079°32'2316.2
2017-Jul-21 02:00N 25°54' W 079°30'713.7 090 / 151018.0 28.025.028.0
2017-Jul-21 01:30N 25°48' W 079°33'4 7.5
2017-Jul-21 00:59N 25°49' W 079°37'4 7.8
2017-Jul-21 00:30N 25°52' W 079°38'4 8.4
2017-Jul-20 23:59N 25°56' W 079°40'5 8.3
2017-Jul-20 23:20N 26°00' W 079°44'3 9.2
2017-Jul-20 23:00N 26°01' W 079°47'5 9.6
2017-Jul-20 22:30N 26°03' W 079°52'4 8.6
2017-Jul-20 22:00N 26°05' W 079°56'5 9.8
2017-Jul-20 21:30N 26°06' W 080°02'5 9.5
2017-Jul-20 21:00N 26°06' W 080°07'0 0.8
2017-Jul-20 20:26N 26°05' W 080°07'0 0.0
2017-Jul-20 19:59N 26°05' W 080°07'0 0.0
2017-Jul-20 19:29N 26°05' W 080°07'0 0.0
2017-Jul-20 18:58N 26°05' W 080°07'0 0.0
2017-Jul-20 18:28N 26°05' W 080°07'0 0.0
2017-Jul-20 17:58N 26°05' W 080°07'0 0.0
2017-Jul-20 17:28N 26°05' W 080°07'0 0.0
2017-Jul-20 17:00N 26°05' W 080°07'0 0.0
2017-Jul-20 16:30N 26°05' W 080°07'0 0.0
2017-Jul-20 16:00N 26°05' W 080°07'0 0.0
2017-Jul-20 15:27N 26°05' W 080°07'0 0.0
2017-Jul-20 14:57N 26°05' W 080°07'0 0.0
2017-Jul-20 13:59N 26°05' W 080°07'0 0.0
2017-Jul-20 13:29N 26°05' W 080°07'0 0.0
2017-Jul-20 12:59N 26°05' W 080°07'0 0.0
2017-Jul-20 12:26N 26°05' W 080°07'0 0.0
2017-Jul-20 11:55N 26°05' W 080°07'0 0.0
2017-Jul-20 11:28N 26°05' W 080°07'0 0.0
2017-Jul-20 10:58N 26°05' W 080°07'0 0.0
2017-Jul-20 10:28N 26°05' W 080°07'0 0.0
2017-Jul-20 10:00N 26°05' W 080°07'1 1.7
2017-Jul-20 09:30N 26°06' W 080°06'612.0
2017-Jul-20 09:00N 26°06' W 079°60'815.8
2017-Jul-20 08:30N 26°07' W 079°51'816.1
2017-Jul-20 08:00N 26°08' W 079°42'815.6
2017-Jul-20 07:30N 26°09' W 079°33'714.4
2017-Jul-20 07:01N 26°10' W 079°25'917.4
2017-Jul-20 06:31N 26°11' W 079°16'32016.4
2017-Jul-19 11:00N 24°00' W 073°54'10517.6 090 / 201019.010.8 27.024.028.0
2017-Jul-19 05:00N 22°48' W 072°30'29 1.5 050 / 201020.0 26.023.028.0
2017-Jul-18 09:00N 22°24' W 072°12'4924.5 100 / 191015.010.8 26.023.028.0
2017-Jul-18 07:00N 22°54' W 072°54'14317.9 090 / 201015.0 24.021.028.0
2017-Jul-17 23:00N 23°48' W 075°18'96 5.6 120 / 221016.010.8 26.022.028.0
2017-Jul-17 06:00N 25°24' W 075°18'5427.1 090 / 101015.0 26.020.0
2017-Jul-17 04:00N 25°48' W 076°12'65 3.3 090 / 151016.0 28.025.028.0
2017-Jul-16 08:00N 25°42' W 077°24'5413.5 050 / 121015.0 26.023.028.0
2017-Jul-16 04:00N 26°06' W 078°18'5414.5 28.0
2017-Jul-16 00:16N 26°14' W 079°17'414.8
2017-Jul-16 00:01N 26°14' W 079°21'714.6
2017-Jul-15 23:31N 26°12' W 079°29'714.2
2017-Jul-15 23:00N 26°11' W 079°37'714.5
2017-Jul-15 22:30N 26°09' W 079°45'714.7
2017-Jul-15 22:00N 26°08' W 079°53'714.3
2017-Jul-15 21:30N 26°07' W 080°01'510.7
2017-Jul-15 21:01N 26°06' W 080°07'0 0.9
2017-Jul-15 20:29N 26°05' W 080°07'0 0.0
2017-Jul-15 19:59N 26°05' W 080°07'0 0.0
2017-Jul-15 19:29N 26°05' W 080°07'0 0.0
2017-Jul-15 18:58N 26°05' W 080°07'0 0.0
2017-Jul-15 18:28N 26°05' W 080°07'0 0.0
2017-Jul-15 17:58N 26°05' W 080°07'0 0.0
2017-Jul-15 17:28N 26°05' W 080°07'0 0.0
2017-Jul-15 17:00N 26°05' W 080°07'0 0.0
2017-Jul-15 16:30N 26°05' W 080°07'0 0.0
2017-Jul-15 15:57N 26°05' W 080°07'0 0.0
2017-Jul-15 15:27N 26°05' W 080°07'0 0.0
2017-Jul-15 14:57N 26°05' W 080°07'0 0.0
2017-Jul-15 13:56N 26°05' W 080°07'0 0.0
2017-Jul-15 13:29N 26°05' W 080°07'0 0.0
2017-Jul-15 12:59N 26°05' W 080°07'0 0.0
2017-Jul-15 12:28N 26°05' W 080°07'0 0.0
2017-Jul-15 11:58N 26°05' W 080°07'0 0.0
2017-Jul-15 11:25N 26°05' W 080°07'0 0.0
2017-Jul-15 10:58N 26°05' W 080°07'0 0.0
2017-Jul-15 10:28N 26°05' W 080°07'0 0.0
2017-Jul-15 10:00N 26°05' W 080°07'0 0.0
2017-Jul-15 09:30N 26°05' W 080°07'0 0.3
2017-Jul-15 09:00N 26°05' W 080°07'4 8.4
2017-Jul-15 08:30N 26°05' W 080°02'815.2
2017-Jul-15 08:01N 26°00' W 079°56'1020.0
2017-Jul-15 07:30N 25°53' W 079°49'1020.5
2017-Jul-15 07:01N 25°43' W 079°47'918.4
2017-Jul-15 06:30N 25°33' W 079°46'1021.4
2017-Jul-15 06:01N 25°23' W 079°45'35314.7
2017-Jul-14 06:00N 20°54' W 083°54'6220.7 270 / 51017.0 26.023.0
2017-Jul-14 03:00N 20°18' W 083°00'26711.1 090 / 101016.0 29.025.0
2017-Jul-13 03:00N 18°42' W 078°36'27411.4 090 / 101015.0 28.025.029.0
2017-Jul-12 03:00N 20°06' W 074°00'   090 / 151016.0 27.024.0

Dump ship's entire track history